Wind_Speed
18 18 18 18 18 14 11 10 8 7 6 5 4 4 3 3 3 3 3 3 3 3 3 3 3 3 2 2 1 1 1 1 2 4 4 4 6 7 7 7 7 7 7 8 10 11 11 11 11
19 17 20 22 15 13 12 11 10 9 7 6 6 5 5 4 4 4 4 3 3 3 3 3 3 3 2 2 2 0 1 2 2 4 4 4 5 6 6 7 7 7 8 8 10 10 10 10 9
20 20 23 18 12 12 12 12 10 9 8 8 7 7 6 5 5 4 4 4 3 3 4 4 3 3 2 2 1 1 2 2 3 4 4 5 6 6 6 7 8 8 8 9 10 10 11 10 10
19 24 22 13 12 13 13 12 11 10 9 9 9 8 7 6 5 5 5 4 4 4 4 4 4 3 2 2 1 2 3 3 3 4 4 5 7 7 7 8 9 9 9 9 10 12 12 12 11
22 24 16 12 13 14 14 13 12 11 10 10 9 8 8 7 6 5 5 5 5 4 4 4 4 4 3 2 1 1 1 2 2 3 4 5 6 8 8 8 9 10 10 9 10 11 12 12 12
25 18 13 12 13 13 14 14 14 12 12 11 11 10 9 7 6 6 6 5 5 5 4 4 4 4 3 3 2 1 1 2 2 3 4 5 7 8 9 9 9 10 9 10 10 9 11 12 11
21 13 9 12 13 13 14 14 14 14 12 12 12 11 10 9 8 7 6 6 5 5 5 4 4 3 3 3 2 1 1 1 1 2 3 5 6 8 9 9 9 9 9 9 9 9 8 9 9
17 11 9 11 13 14 14 15 15 14 13 12 12 12 11 10 9 8 7 6 6 6 5 5 4 3 2 2 2 2 1 1 1 3 4 4 6 8 8 8 8 8 8 8 8 8 8 8 8
14 11 11 10 12 14 14 15 15 14 14 13 13 12 12 11 10 10 9 8 7 6 6 6 5 3 2 2 2 2 1 1 2 3 4 5 5 6 7 7 8 7 7 8 9 8 8 8 7
10 9 10 11 12 14 14 15 15 15 15 14 14 13 12 12 11 10 10 9 9 8 7 7 6 5 3 2 3 2 2 2 2 4 5 5 6 6 7 8 7 7 8 8 7 7 7 7 7
8 8 9 11 13 14 15 16 16 16 15 15 14 14 13 12 12 11 11 10 8 8 8 7 7 6 5 3 3 4 3 2 3 4 5 6 6 6 6 6 7 6 6 6 6 6 7 6 6
7 8 9 11 13 14 16 17 16 16 16 15 15 15 14 13 13 12 12 11 9 9 8 8 7 6 6 4 4 4 4 3 3 4 5 7 7 6 6 6 5 5 6 6 5 6 5 5 5
7 8 9 11 13 14 15 16 17 17 16 16 16 16 15 15 14 13 12 12 11 9 9 8 7 7 6 5 4 4 4 4 5 5 5 6 7 7 7 7 6 5 5 5 5 5 5 4 4
4 6 8 11 13 14 13 15 17 17 17 17 16 16 16 15 14 13 13 13 12 11 10 9 9 8 7 5 5 5 4 5 5 6 6 6 6 7 6 6 6 5 4 4 4 5 4 3 2
2 5 7 10 12 14 13 14 16 16 16 16 17 16 16 15 14 13 13 13 13 12 11 9 9 8 7 6 6 5 5 5 5 5 5 5 5 5 5 5 4 4 3 3 3 3 2 1 1
1 3 5 8 10 12 13 13 14 15 16 16 16 16 16 15 14 13 13 13 13 12 11 10 9 8 7 7 6 5 5 5 5 5 4 4 4 4 4 3 3 3 2 1 1 1 1 1 1
1 3 2 4 8 10 11 12 13 14 15 16 16 16 16 15 14 14 13 12 12 12 11 11 10 9 8 8 7 6 5 5 4 4 4 4 4 3 3 3 2 2 2 1 0 1 1 1 2
2 3 3 3 5 7 9 10 12 14 14 15 15 16 16 15 14 14 13 12 12 12 11 11 10 10 10 9 8 7 6 5 5 4 3 3 3 2 2 2 2 1 1 1 1 2 2 2 3
6 3 4 4 4 6 8 8 10 12 14 14 15 15 15 14 13 13 13 12 12 12 11 11 10 10 10 9 8 7 7 6 5 5 5 3 3 2 1 1 1 1 1 2 2 2 2 3 3
6 4 4 5 5 6 7 8 7 9 13 13 13 13 13 13 12 12 12 12 12 12 12 11 10 10 9 9 9 8 7 7 6 6 5 4 3 3 2 1 1 2 2 2 2 2 3 4 4
7 8 8 8 8 7 8 9 7 7 9 12 12 12 12 12 11 11 11 11 11 11 11 11 10 10 9 9 8 8 7 7 6 6 5 5 4 4 3 3 3 3 2 3 2 3 3 3 4
11 11 10 10 9 8 9 13 12 7 8 10 11 11 11 11 10 10 10 10 10 10 10 10 10 9 9 8 7 7 7 6 6 6 6 6 6 5 5 4 4 3 3 3 3 3 4 4 5
15 13 12 12 10 10 10 12 14 10 7 9 10 10 11 10 10 9 9 9 9 9 9 9 9 9 8 8 7 6 6 6 5 5 5 5 5 5 5 5 5 5 5 4 4 4 5 5 6
16 15 14 13 11 11 11 11 13 11 9 9 9 10 10 9 9 9 8 8 8 8 8 8 8 8 8 7 7 6 5 5 4 5 4 4 4 4 4 4 5 5 6 5 5 5 6 6 7
17 16 16 14 13 14 12 11 14 15 10 9 10 10 10 9 9 9 8 8 8 8 8 8 7 7 7 7 6 6 5 4 4 4 4 4 4 4 4 5 5 6 6 6 6 7 7 7 7
19 18 18 17 15 15 13 12 12 12 11 12 12 11 11 10 10 9 8 8 8 8 7 7 7 7 7 6 6 5 5 4 4 4 4 4 4 4 4 5 5 7 7 7 7 8 8 8 8
21 20 18 18 17 16 16 14 12 11 11 12 13 12 12 12 11 11 10 8 8 8 8 7 7 7 6 6 6 6 4 4 5 5 4 4 4 5 5 6 6 8 8 9 9 9 9 9 9
24 21 20 19 18 19 18 18 14 13 12 12 13 13 13 13 13 12 11 10 9 9 9 8 8 8 7 7 7 6 6 5 5 6 5 5 5 5 6 7 8 9 9 10 10 10 11 11 11
24 23 21 20 19 19 19 19 16 14 13 14 13 13 14 15 15 13 12 11 11 11 10 10 8 8 8 8 8 8 8 8 7 7 7 7 7 8 8 9 9 10 11 11 12 12 12 12 13
23 22 22 22 22 21 20 20 18 16 14 14 13 14 15 15 15 14 13 13 13 12 11 11 10 9 10 10 10 10 10 9 9 8 8 9 9 10 10 10 11 12 12 13 13 13 13 13 13
Wind_Direction
67 66 63 56 45 33 25 26 28 32 30 27 28 29 27 26 16 8 6 12 26 38 43 40 46 37 18 14 26 45 112 133 143 135 141 143 136 139 154 155 151 153 157 151 155 160 161 161 157
66 65 61 51 39 23 26 33 35 35 34 33 32 36 37 34 33 24 21 24 34 43 43 41 43 47 40 15 1 67 125 150 145 136 138 138 139 135 144 151 151 148 149 155 160 154 152 152 146
69 63 56 45 28 23 32 38 39 40 38 36 36 38 43 43 41 38 36 41 44 46 46 43 46 49 48 23 9 193 139 141 139 134 133 133 139 140 140 150 155 149 142 144 154 148 145 145 143
66 60 51 42 27 31 35 37 37 40 39 39 41 43 43 46 43 43 43 46 50 51 49 46 42 38 34 39 65 152 148 137 138 145 140 137 132 135 139 147 150 144 147 138 137 140 144 144 146
65 58 48 33 28 33 37 37 37 40 38 38 40 40 43 45 45 45 45 46 45 49 52 45 42 36 27 36 100 89 97 111 125 136 135 139 140 142 144 138 143 143 142 143 139 136 135 138 143
65 51 36 25 28 34 37 37 39 40 39 40 42 40 41 42 43 44 48 51 49 44 43 42 33 29 31 29 31 37 75 102 104 123 126 139 147 146 149 139 142 140 137 147 152 145 137 139 144
72 65 39 23 28 34 39 39 40 41 40 40 41 41 41 42 40 41 46 51 46 42 39 38 30 26 32 40 35 47 68 97 125 126 131 140 146 152 145 139 143 138 136 144 146 149 143 138 145
65 60 46 27 25 31 38 42 41 43 42 41 40 39 38 39 39 39 43 45 43 40 32 28 24 28 41 58 54 55 68 98 140 126 123 134 134 140 142 138 143 139 137 139 146 148 151 143 142
63 54 45 32 27 35 38 41 43 44 44 42 40 39 39 39 40 41 42 41 35 30 29 21 21 25 31 65 77 90 76 86 114 126 127 124 125 131 139 139 140 139 141 141 143 144 142 144 142
53 49 43 35 36 36 40 41 41 43 41 40 38 39 41 42 40 40 41 37 34 28 26 25 25 28 32 34 74 110 106 88 96 116 125 124 123 128 133 136 137 138 143 145 148 144 139 139 141
49 52 46 37 39 40 42 41 40 39 39 38 38 40 42 41 40 40 38 34 32 31 34 33 33 35 40 46 64 71 86 88 99 106 120 122 129 131 132 137 135 133 140 144 146 147 146 146 146
47 53 48 43 42 43 42 40 40 37 36 37 39 41 40 39 39 39 35 33 36 39 37 36 41 45 49 55 64 68 74 87 95 102 113 119 123 128 134 146 145 138 131 133 143 145 148 149 147
49 48 47 41 40 40 43 41 39 37 35 36 37 39 38 37 36 36 34 36 37 40 40 41 41 45 52 62 71 74 81 89 87 93 109 115 121 121 122 130 134 131 131 134 140 142 137 138 148
64 57 45 38 33 35 36 38 36 35 33 34 36 36 35 35 36 35 34 38 39 43 48 48 49 50 53 61 71 81 86 93 97 98 102 108 115 117 116 114 119 124 126 133 143 139 133 142 157
18 37 43 33 24 26 26 33 28 28 28 30 32 33 33 33 36 37 36 40 42 44 48 48 50 51 54 62 68 79 90 99 108 114 112 107 112 120 114 109 107 115 122 131 140 143 148 160 192
326 11 37 30 18 19 20 23 25 24 25 27 28 30 30 31 34 36 37 38 40 42 43 48 50 52 57 63 69 77 89 99 105 112 109 108 107 110 107 101 101 106 109 108 140 167 184 207 239
191 296 7 8 3 10 15 12 17 20 20 24 25 26 28 30 32 35 36 37 37 37 42 45 44 48 55 64 69 73 85 94 100 108 110 99 96 96 106 106 99 95 81 59 115 249 257 263 275
228 243 292 307 347 355 360 6 10 16 16 18 22 24 25 29 32 33 35 36 37 36 38 44 47 47 48 54 61 70 78 85 92 95 95 90 84 88 99 105 98 93 53 345 293 273 275 276 286
236 222 264 284 317 327 337 351 360 7 11 13 15 19 22 26 29 30 32 36 37 37 37 36 42 49 51 53 57 65 71 73 80 84 85 82 77 77 92 87 63 40 15 344 312 299 288 282 283
241 259 268 280 286 310 312 319 337 356 0 5 10 13 17 21 24 25 28 32 34 35 36 35 37 40 45 50 52 58 67 69 72 76 73 73 66 58 64 72 56 27 356 348 332 302 292 284 284
238 250 251 266 281 292 305 299 301 338 346 351 356 3 9 16 19 22 27 30 30 30 33 35 37 39 42 47 50 57 67 70 70 71 70 68 69 70 68 74 51 25 7 354 349 344 332 313 307
239 246 254 261 274 285 287 295 303 308 333 340 346 351 359 7 13 17 21 24 27 26 29 31 35 39 42 44 47 52 59 63 66 68 69 67 65 64 64 64 52 40 27 10 355 346 337 331 327
235 242 246 251 261 272 281 295 304 294 305 328 336 341 347 356 3 9 13 16 19 21 21 23 25 31 36 37 39 48 57 61 65 67 65 61 58 57 55 53 47 42 28 10 354 344 338 338 334
234 240 248 253 257 258 266 278 287 296 296 307 316 324 333 344 350 357 1 3 6 11 14 13 13 20 26 28 28 35 47 57 61 62 57 53 47 45 42 34 30 25 16 12 360 345 343 337 331
233 239 250 260 266 258 257 260 278 286 288 296 299 303 315 324 332 344 350 350 352 357 3 5 4 7 13 17 21 23 24 35 40 42 41 37 29 24 21 19 16 10 1 356 351 344 335 329 326
231 234 242 250 264 269 263 254 263 283 293 286 285 292 301 307 319 329 333 332 337 340 345 350 351 353 357 2 7 3 8 17 11 11 12 6 4 358 354 352 354 350 346 344 341 341 336 331 329
230 235 243 251 260 267 259 262 260 267 276 280 285 286 291 297 304 309 317 320 321 327 330 331 332 335 340 344 351 348 351 2 355 350 341 333 329 334 334 334 334 336 336 333 330 329 329 328 325
231 233 240 240 253 261 264 264 254 260 257 271 282 284 284 287 294 299 304 306 308 313 317 318 317 319 324 329 330 332 333 338 338 331 323 319 318 320 323 323 323 324 325 327 324 322 320 318 319
232 231 233 240 242 253 265 263 268 270 264 270 279 282 281 280 286 291 296 297 297 303 306 306 303 304 308 312 314 314 315 318 316 316 314 313 314 315 316 318 321 321 320 321 321 320 318 313 313
235 237 234 240 244 247 254 262 264 268 269 270 277 279 278 277 280 282 285 289 289 291 292 295 293 294 297 299 301 304 303 303 307 307 305 303 303 301 303 307 311 313 313 313 312 312 312 309 309
Height
5880 5879 5878 5878 5876 5877 5876 5875 5873 5872 5871 5870 5869 5868 5867 5867 5868 5869 5866 5865 5864 5864 5863 5863 5863 5863 5863 5863 5863 5862 5862 5862 5862 5863 5863 5863 5863 5863 5864 5864 5865 5866 5867 5868 5869 5870 5872 5874 5876
5883 5882 5880 5879 5881 5880 5879 5877 5875 5874 5873 5871 5870 5870 5869 5868 5868 5867 5866 5866 5865 5865 5864 5864 5864 5864 5864 5863 5863 5863 5863 5863 5863 5863 5864 5864 5863 5864 5864 5865 5866 5867 5868 5869 5870 5872 5873 5876 5877
5886 5883 5880 5884 5885 5883 5881 5879 5877 5875 5874 5873 5872 5871 5870 5869 5869 5868 5867 5867 5866 5866 5865 5865 5864 5865 5864 5864 5864 5863 5864 5864 5864 5864 5865 5865 5865 5865 5865 5866 5867 5869 5870 5871 5871 5873 5875 5877 5878
5887 5883 5886 5890 5888 5885 5883 5881 5879 5877 5876 5874 5873 5872 5871 5870 5870 5869 5868 5867 5867 5867 5866 5866 5866 5865 5865 5865 5865 5864 5864 5865 5865 5865 5865 5866 5866 5866 5867 5867 5868 5870 5871 5873 5873 5874 5876 5878 5879
5888 5888 5893 5893 5890 5888 5885 5883 5881 5879 5877 5876 5875 5874 5872 5872 5871 5870 5869 5868 5868 5868 5867 5867 5867 5866 5866 5865 5865 5865 5865 5865 5866 5866 5867 5867 5867 5868 5868 5869 5870 5871 5873 5874 5875 5876 5877 5878 5879
5891 5895 5897 5895 5892 5890 5888 5885 5883 5882 5880 5878 5877 5875 5874 5873 5872 5871 5870 5869 5869 5868 5868 5867 5867 5867 5867 5866 5866 5866 5866 5866 5867 5867 5868 5868 5868 5869 5870 5871 5872 5873 5875 5876 5878 5879 5880 5880 5882
5895 5900 5900 5897 5895 5892 5890 5888 5886 5884 5882 5881 5879 5878 5876 5875 5873 5872 5871 5870 5870 5869 5868 5868 5868 5868 5867 5867 5867 5867 5867 5868 5868 5869 5869 5869 5870 5871 5871 5872 5874 5875 5876 5878 5879 5880 5882 5883 5885
5901 5903 5902 5899 5897 5895 5893 5891 5888 5886 5885 5883 5881 5880 5878 5877 5875 5874 5873 5872 5871 5870 5870 5869 5868 5868 5868 5868 5868 5868 5868 5869 5869 5870 5870 5871 5871 5872 5873 5874 5875 5877 5878 5879 5880 5882 5883 5885 5887
5905 5907 5904 5902 5900 5898 5895 5893 5891 5889 5887 5885 5884 5882 5880 5879 5877 5876 5875 5873 5872 5871 5871 5870 5869 5869 5869 5869 5869 5868 5869 5870 5870 5871 5871 5872 5873 5874 5875 5876 5877 5878 5879 5881 5882 5884 5885 5887 5888
5909 5909 5907 5905 5902 5900 5898 5895 5893 5891 5890 5888 5886 5884 5882 5881 5879 5878 5876 5875 5874 5872 5872 5871 5870 5870 5870 5869 5870 5870 5870 5871 5871 5872 5872 5874 5875 5876 5877 5878 5879 5880 5881 5882 5884 5885 5886 5888 5889
5911 5910 5909 5906 5904 5902 5900 5898 5896 5894 5892 5891 5888 5886 5884 5883 5881 5880 5878 5877 5875 5874 5873 5872 5871 5871 5871 5871 5871 5871 5871 5872 5873 5873 5874 5875 5876 5877 5878 5879 5881 5881 5882 5883 5885 5886 5888 5889 5890
5913 5912 5910 5909 5907 5905 5903 5901 5899 5897 5895 5893 5891 5888 5887 5885 5883 5882 5880 5879 5877 5876 5875 5874 5873 5873 5872 5873 5873 5874 5874 5874 5874 5875 5875 5876 5877 5879 5880 5881 5882 5883 5884 5885 5886 5887 5889 5890 5891
5915 5914 5912 5910 5908 5907 5905 5903 5901 5899 5897 5895 5893 5891 5889 5887 5885 5884 5882 5881 5879 5878 5877 5876 5875 5875 5874 5874 5875 5875 5875 5876 5876 5876 5877 5878 5879 5880 5881 5882 5883 5884 5885 5886 5887 5888 5889 5890 5891
5916 5915 5914 5912 5911 5909 5907 5905 5903 5901 5900 5898 5895 5893 5891 5890 5888 5886 5885 5883 5881 5880 5879 5878 5877 5877 5877 5876 5877 5877 5877 5877 5877 5878 5879 5880 5881 5882 5883 5883 5884 5886 5887 5887 5888 5889 5890 5891 5892
5916 5916 5915 5914 5912 5911 5909 5907 5906 5904 5902 5900 5898 5896 5894 5892 5890 5889 5887 5885 5884 5882 5881 5880 5879 5879 5879 5878 5878 5878 5878 5879 5879 5880 5881 5881 5882 5883 5884 5885 5886 5887 5888 5888 5889 5890 5890 5891 5892
5916 5916 5916 5916 5914 5913 5912 5910 5908 5906 5904 5902 5900 5898 5896 5894 5893 5891 5889 5888 5886 5885 5883 5882 5881 5881 5880 5880 5880 5880 5880 5880 5881 5882 5882 5883 5884 5884 5885 5886 5887 5887 5888 5889 5889 5890 5891 5891 5892
5917 5917 5916 5917 5916 5915 5913 5911 5910 5908 5906 5904 5902 5900 5898 5897 5895 5893 5892 5890 5889 5888 5886 5885 5884 5883 5882 5881 5881 5881 5882 5882 5882 5883 5884 5884 5885 5885 5886 5887 5887 5888 5888 5889 5890 5890 5891 5891 5891
5919 5919 5918 5918 5917 5917 5915 5913 5912 5910 5908 5906 5904 5902 5901 5899 5897 5896 5894 5893 5891 5890 5889 5888 5886 5885 5884 5884 5883 5883 5884 5884 5884 5884 5885 5885 5886 5886 5887 5887 5888 5888 5889 5889 5890 5890 5890 5891 5891
5918 5918 5919 5917 5918 5918 5916 5914 5913 5911 5910 5908 5906 5904 5902 5901 5899 5898 5896 5895 5894 5892 5891 5890 5889 5888 5887 5886 5886 5885 5885 5886 5886 5886 5886 5886 5887 5887 5888 5888 5888 5889 5889 5889 5889 5890 5890 5890 5891
5916 5917 5919 5917 5917 5917 5916 5915 5913 5912 5911 5910 5908 5906 5904 5903 5901 5900 5898 5897 5896 5895 5893 5892 5891 5890 5889 5888 5888 5887 5887 5887 5887 5887 5887 5887 5888 5888 5888 5888 5889 5889 5889 5889 5889 5890 5890 5890 5890
5917 5918 5918 5918 5916 5916 5916 5913 5911 5911 5911 5910 5909 5907 5906 5904 5903 5901 5900 5899 5897 5896 5895 5894 5893 5892 5891 5890 5890 5889 5889 5889 5889 5889 5889 5889 5889 5889 5889 5889 5890 5890 5890 5890 5890 5890 5890 5890 5890
5916 5917 5916 5916 5915 5916 5916 5913 5911 5910 5910 5910 5909 5908 5906 5905 5904 5902 5901 5900 5899 5898 5897 5896 5895 5894 5893 5892 5891 5891 5891 5890 5890 5890 5890 5890 5890 5890 5890 5890 5890 5890 5890 5890 5890 5890 5889 5889 5889
5913 5914 5915 5914 5914 5915 5914 5913 5910 5908 5907 5909 5909 5908 5907 5905 5904 5903 5902 5901 5900 5899 5898 5897 5896 5895 5894 5894 5893 5892 5892 5892 5891 5891 5891 5891 5891 5891 5891 5891 5891 5891 5890 5890 5889 5889 5889 5888 5888
5910 5912 5912 5912 5912 5913 5913 5913 5910 5908 5908 5908 5908 5908 5907 5906 5905 5904 5903 5902 5901 5900 5899 5898 5897 5896 5896 5895 5894 5893 5893 5892 5892 5892 5892 5892 5892 5892 5892 5892 5892 5891 5891 5890 5889 5889 5888 5888 5887
5907 5909 5910 5910 5909 5910 5910 5911 5911 5908 5907 5908 5907 5907 5907 5906 5905 5904 5903 5902 5901 5901 5900 5899 5898 5897 5896 5895 5895 5894 5893 5893 5893 5893 5893 5893 5893 5893 5893 5892 5892 5891 5891 5890 5889 5889 5888 5887 5886
5903 5906 5907 5908 5908 5908 5906 5906 5908 5907 5906 5907 5906 5905 5905 5904 5904 5903 5903 5902 5901 5900 5900 5899 5898 5897 5897 5896 5895 5894 5894 5893 5893 5893 5893 5893 5893 5893 5892 5892 5892 5891 5891 5890 5889 5888 5887 5886 5885
5899 5901 5903 5905 5904 5905 5904 5903 5904 5905 5904 5905 5904 5904 5904 5903 5903 5902 5901 5901 5900 5900 5899 5899 5898 5897 5897 5896 5895 5894 5894 5894 5893 5893 5893 5893 5893 5892 5892 5892 5891 5891 5890 5889 5888 5887 5886 5885 5884
5894 5897 5900 5900 5901 5901 5902 5900 5900 5900 5901 5902 5902 5902 5902 5901 5901 5901 5900 5899 5899 5899 5899 5898 5897 5897 5897 5896 5895 5895 5894 5893 5893 5893 5892 5892 5892 5892 5891 5891 5890 5890 5889 5888 5887 5886 5885 5883 5882
5889 5892 5894 5896 5897 5898 5898 5898 5897 5897 5897 5898 5898 5899 5900 5899 5898 5898 5898 5898 5898 5897 5897 5897 5896 5896 5895 5895 5894 5894 5893 5893 5892 5892 5891 5891 5891 5890 5890 5889 5888 5888 5887 5886 5884 5883 5882 5881 5880
5885 5887 5890 5892 5893 5894 5895 5897 5894 5893 5892 5893 5894 5896 5896 5896 5896 5896 5896 5895 5895 5895 5895 5895 5894 5894 5894 5893 5893 5892 5892 5891 5891 5890 5890 5889 5889 5889 5888 5887 5886 5886 5885 5883 5882 5880 5879 5878 5877